20050710,000027,963133,31.956375,-122.510773,17.4,18.250,33.027,43.819,1904.57,0.0,0.463,17.977,17.940, NaN,23.700,   NaN,17.10,1015.71,100.00,32.73,57.4,66.6,6.9,4.6,343.8,7.0,6.3,5.8,NaN, NaN,18.4,226.9,230.4,1120953628,1120953628,1,11.2,000027,000028,235.6,31.956381,-122.510706,10.67,NaN,NaN,18.254, NaN,NaN,NaN, NaN, NaN
20050710,000058,963163,31.955473,-122.512226,17.4,18.321,33.035,43.896,2155.99,0.0,0.463,18.031,17.995, NaN,23.689,   NaN,17.17,1015.66,55.76,17.55,55.5,61.5,6.9,4.9,342.2,4.1,6.1,5.7,NaN, NaN,18.9,234.1,235.6,1120953658,1120953658,1,11.0,000057,000058,235.6,31.955475,-122.512156,10.68,NaN,NaN,18.325, NaN,NaN,NaN, NaN, NaN
20050710,000128,963193,31.954556,-122.513670,17.5,18.383,33.041,43.962,2752.42,0.0,0.463,18.082,18.045, NaN,23.678,   NaN,17.22,1015.61,99.82,17.60,56.0,60.0,7.0,4.8,342.1,4.5,6.2,5.7,NaN, NaN,19.4,235.6,233.5,1120953688,1120953688,1,11.4,000087,000088,235.8,31.954555,-122.513606,10.82,NaN,NaN,18.387, NaN,NaN,NaN, NaN, NaN
20050710,000158,963224,31.953605,-122.515136,17.5,18.451,33.055,44.044,2532.26,0.0,0.444,18.132,18.096, NaN,23.672,   NaN,17.23,1015.57,99.70,17.62,59.1,73.1,7.4,4.1,341.8,14.3,6.8,6.1,NaN, NaN,20.4,235.4,228.5,1120953718,1120953718,1,10.8,000118,000118,236.7,31.953645,-122.515035,10.70,NaN,NaN,18.455, NaN,NaN,NaN, NaN, NaN
20050710,000228,963254,31.952715,-122.516576,17.5,18.486,33.085,44.114,2497.07,0.0,0.444,18.172,18.135, NaN,23.687,   NaN,17.29,1015.57,99.73,17.64,59.9,76.4,7.6,4.6,340.7,10.2,7.0,6.5,NaN, NaN,20.3,233.8,230.9,1120953749,1120953749,1,10.9,000148,000149,235.3,31.952725,-122.516521,10.51,NaN,NaN,18.490, NaN,NaN,NaN, NaN, NaN
20050710,000258,963284,31.951813,-122.518013,17.4,18.517,33.098,44.159,2440.22,0.0,0.463,18.203,18.166, NaN,23.689,   NaN,17.27,1015.63,99.63,17.67,61.0,72.0,7.5,4.4,341.8,10.9,7.0,6.1,NaN, NaN,19.6,237.1,231.8,1120953778,1120953778,1,11.2,000178,000178,236.1,31.951845,-122.517906,10.59,NaN,NaN,18.521, NaN,NaN,NaN, NaN, NaN
20050710,000328,963314,31.950925,-122.519468,17.3,18.541,33.110,44.196,2379.74,0.0,0.463,18.230,18.193, NaN,23.692,   NaN,17.31,1015.59,99.64,17.69,63.3,85.1,7.4,4.0,344.7,16.7,7.1,6.5,NaN, NaN,19.4,229.9,235.1,1120953809,1120953809,1,10.8,000208,000209,234.1,31.950925,-122.519401,10.69,NaN,NaN,18.545, NaN,NaN,NaN, NaN, NaN
20050710,000358,963343,31.950000,-122.520868,17.6,18.563,33.109,44.217,1476.63,0.0,0.444,18.251,18.215, NaN,23.686,   NaN,17.27,1015.62,99.72,17.67,62.8,76.9,7.3,3.9,344.5,16.2,7.1,6.0,NaN, NaN,19.4,238.1,234.5,1120953839,1120953838,1,11.2,000238,000238,236.3,31.950031,-122.520758,10.64,NaN,NaN,18.567, NaN,NaN,NaN, NaN, NaN
20050710,000428,963374,31.949121,-122.522260,17.4,18.579,33.121,44.246,1430.12,0.0,0.463,18.266,18.230, NaN,23.691,   NaN,17.24,1015.62,100.00,91.45,59.8,63.6,7.1,4.3,343.1,10.3,6.7,5.6,NaN, NaN,19.8,236.5,231.8,1120953868,1120953868,1,11.1,000267,000268,236.1,31.949123,-122.522195,10.56,NaN,NaN,18.583, NaN,NaN,NaN, NaN, NaN
20050710,000458,963404,31.948186,-122.523736,17.5,18.586,33.127,44.260,1985.33,0.0,0.463,18.280,18.244, NaN,23.694,   NaN,17.30,1015.53,74.79,17.68,55.8,68.7,7.8,5.9,336.5,358.0,6.8,6.8,NaN, NaN,20.3,238.5,233.4,1120953899,1120953899,1,11.0,000298,000299,236.6,31.948190,-122.523681,10.45,NaN,NaN,18.590, NaN,NaN,NaN, NaN, NaN
20050710,000528,963434,31.947296,-122.525180,17.5,18.605,33.124,44.275,1308.66,0.0,0.500,18.295,18.260, NaN,23.687,   NaN,17.14,1015.61,99.72,17.59,58.7,71.1,7.8,4.8,338.5,10.1,7.1,6.5,NaN, NaN,19.1,230.4,232.1,1120953928,1120953928,1,11.3,000328,000328,236.1,31.947333,-122.525071,10.58,NaN,NaN,18.609, NaN,NaN,NaN, NaN, NaN
20050710,000558,963464,31.946383,-122.526608,17.3,18.622,33.123,44.290,1041.87,0.0,0.481,18.311,18.275, NaN,23.682,   NaN,17.15,1015.63,100.00,27.08,60.1,67.6,7.3,4.3,342.7,12.8,6.9,6.1,NaN, NaN,20.4,231.3,230.0,1120953959,1120953959,1,11.0,000358,000359,235.1,31.946396,-122.526546,10.65,NaN,NaN,18.626, NaN,NaN,NaN, NaN, NaN
20050710,000628,963493,31.945481,-122.528066,17.6,18.638,33.124,44.306,946.26,0.0,0.500,18.324,18.288, NaN,23.678,   NaN,17.07,1015.61,100.00,43.70,57.0,64.3,7.6,5.7,338.7,357.2,6.7,6.3,NaN, NaN,21.3,229.5,234.5,1120953989,1120953989,1,10.9,000388,000389,235.3,31.945490,-122.528001,10.74,NaN,NaN,18.642, NaN,NaN,NaN, NaN, NaN
20050710,000658,963523,31.944560,-122.529508,17.3,18.656,33.125,44.324,997.43,0.0,0.481,18.339,18.303, NaN,23.675,   NaN,17.07,1015.62,100.00,17.50,59.9,68.1,7.6,5.3,340.9,2.0,7.0,6.3,NaN, NaN,19.2,237.4,236.1,1120954018,1120954018,1,11.0,000418,000418,235.0,31.944593,-122.529400,10.89,NaN,NaN,18.660, NaN,NaN,NaN, NaN, NaN
20050710,000729,963555,31.943640,-122.530948,17.6,18.675,33.124,44.341,1144.13,0.0,0.463,18.352,18.315, NaN,23.669,   NaN,17.14,1015.67,100.00,17.53,64.8,73.5,7.1,4.3,347.1,11.8,7.1,6.3,NaN, NaN,19.1,234.3,235.7,1120954049,1120954049,1,10.6,000448,000449,234.5,31.943640,-122.530883,10.84,NaN,NaN,18.679, NaN,NaN,NaN, NaN, NaN
20050710,000758,963584,31.942741,-122.532328,17.4,18.684,33.127,44.354,1195.09,0.0,0.481,18.368,18.332, NaN,23.670,   NaN,17.18,1015.64,100.00,17.55,63.3,75.0,6.9,3.6,347.1,17.2,6.9,6.1,NaN, NaN,19.7,225.6,230.4,1120954078,1120954078,1,10.8,000477,000478,235.3,31.942735,-122.532271,10.80,NaN,NaN,18.688, NaN,NaN,NaN, NaN, NaN
20050710,000829,963614,31.941801,-122.533826,17.3,18.703,33.128,44.373,1196.76,0.0,0.500,18.382,18.348, NaN,23.666,   NaN,17.16,1015.68,100.00,17.56,62.9,67.3,7.0,3.6,346.5,16.7,7.0,5.7,NaN, NaN,18.0,228.4,233.4,1120954109,1120954109,1,10.9,000508,000509,234.8,31.941796,-122.533761,10.70,NaN,NaN,18.707, NaN,NaN,NaN, NaN, NaN
20050710,000858,963644,31.940861,-122.535248,17.3,18.725,33.126,44.392,1159.61,0.0,0.519,18.391,18.356, NaN,23.658,   NaN,17.18,1015.67,100.00,17.56,60.6,65.9,7.0,3.8,344.8,15.1,6.7,5.7,NaN, NaN,18.9,232.9,231.2,1120954139,1120954139,1,11.0,000538,000539,234.8,31.940866,-122.535185,10.63,NaN,NaN,18.729, NaN,NaN,NaN, NaN, NaN
20050710,000928,963673,31.939958,-122.536690,17.3,18.736,33.130,44.407,1095.10,0.0,0.519,18.397,18.361, NaN,23.658,   NaN,17.05,1015.70,100.00,17.50,60.4,75.0,6.9,3.9,345.1,16.3,6.7,6.2,NaN, NaN,18.2,227.5,239.4,1120954169,1120954168,1,11.0,000568,000568,235.3,31.939981,-122.536571,10.80,NaN,NaN,18.740, NaN,NaN,NaN, NaN, NaN
20050710,000958,963703,31.939033,-122.538083,17.2,18.729,33.143,44.417,1042.87,0.0,0.557,18.399,18.362, NaN,23.671,   NaN,17.09,1015.68,100.00,17.50,62.4,80.0,6.8,3.6,347.3,20.6,6.8,6.4,NaN, NaN,18.0,230.2,231.5,1120954198,1120954198,1,11.1,000598,000598,235.1,31.939055,-122.537963,10.82,NaN,NaN,18.733, NaN,NaN,NaN, NaN, NaN
20050710,001029,963734,31.938105,-122.539495,17.3,18.727,33.143,44.414,1109.39,0.0,0.538,18.403,18.366, NaN,23.671,   NaN,17.09,1015.66,100.00,17.50,64.1,68.5,6.9,3.6,347.4,17.7,7.0,5.8,NaN, NaN,18.3,231.8,232.5,1120954229,1120954229,1,11.3,000628,000629,236.0,31.938100,-122.539430,10.76,NaN,NaN,18.731, NaN,NaN,NaN, NaN, NaN
20050710,001058,963764,31.937190,-122.540925,17.5,18.725,33.143,44.412,1419.72,0.0,0.538,18.407,18.371, NaN,23.672,   NaN,17.16,1015.68,100.00,17.54,61.7,60.5,6.8,4.0,347.1,14.2,6.7,5.6,NaN, NaN,18.9,237.3,238.1,1120954259,1120954258,1,10.7,000658,000658,236.0,31.937220,-122.540810,10.78,NaN,NaN,18.729, NaN,NaN,NaN, NaN, NaN
20050710,001128,963794,31.936251,-122.542323,17.3,18.735,33.133,44.410,1729.15,0.0,0.538,18.412,18.378, NaN,23.661,   NaN,17.12,1015.74,100.00,17.53,60.0,65.2,7.0,4.5,344.4,8.0,6.7,5.9,NaN, NaN,19.3,231.0,231.5,1120954289,1120954289,1,10.8,000688,000689,235.3,31.936260,-122.542258,10.75,NaN,NaN,18.739, NaN,NaN,NaN, NaN, NaN
20050710,001158,963823,31.935328,-122.543730,17.2,18.739,33.139,44.421,2534.02,0.0,0.557,18.421,18.385, NaN,23.665,   NaN,17.04,1015.66,100.00,17.53,58.6,61.2,7.0,4.0,343.0,14.4,6.6,5.5,NaN, NaN,19.4,225.0,227.8,1120954318,1120954318,1,11.1,000718,000718,236.7,31.935361,-122.543620,10.72,NaN,NaN,18.743, NaN,NaN,NaN, NaN, NaN
20050710,001228,963853,31.934403,-122.545131,17.3,18.742,33.137,44.422,1645.74,0.0,0.538,18.430,18.394, NaN,23.663,   NaN,17.07,1015.68,100.00,17.53,59.0,57.0,6.7,3.4,345.0,25.7,6.4,5.3,NaN, NaN,18.7,235.7,232.7,1120954349,1120954349,1,11.1,000748,000749,235.8,31.934398,-122.545071,10.67,NaN,NaN,18.746, NaN,NaN,NaN, NaN, NaN
20050710,001258,963884,31.933490,-122.546553,17.2,18.751,33.138,44.432,1305.30,0.0,0.519,18.441,18.405, NaN,23.661,   NaN,16.93,1015.68,100.00,17.43,59.2,66.8,7.0,3.9,343.5,17.9,6.7,5.9,NaN, NaN,18.2,231.4,232.5,1120954379,1120954379,1,10.9,000778,000779,234.8,31.933480,-122.546481,10.70,NaN,NaN,18.756, NaN,NaN,NaN, NaN, NaN
20050710,001328,963914,31.932541,-122.547963,17.6,18.755,33.137,44.434,1281.47,0.0,0.519,18.447,18.410, NaN,23.660,   NaN,16.84,1015.65,100.00,17.37,64.1,69.7,7.3,3.8,345.1,14.0,7.3,5.8,NaN, NaN,19.2,230.6,231.6,1120954409,1120954408,1,11.2,000808,000808,236.8,31.932556,-122.547848,10.97,NaN,NaN,18.760, NaN,NaN,NaN, NaN, NaN
20050710,001358,963944,31.931600,-122.549380,17.4,18.764,33.136,44.441,1015.58,0.0,0.500,18.451,18.414, NaN,23.656,   NaN,16.97,1015.68,100.00,17.40,65.9,77.9,6.9,3.5,348.7,18.8,7.2,6.1,NaN, NaN,18.0,231.5,231.8,1120954439,1120954439,1,10.9,000838,000839,236.5,31.931596,-122.549310,10.73,NaN,NaN,18.769, NaN,NaN,NaN, NaN, NaN
20050710,001428,963974,31.930665,-122.550803,17.3,18.773,33.135,44.449,975.31,0.0,0.519,18.448,18.411, NaN,23.653,   NaN,16.98,1015.65,100.00,17.37,65.9,77.0,6.8,3.3,349.7,21.0,7.1,6.0,NaN, NaN,17.9,233.7,235.8,1120954469,1120954469,1,10.7,000868,000869,234.8,31.930665,-122.550730,10.89,NaN,NaN,18.778, NaN,NaN,NaN, NaN, NaN
20050710,001458,964003,31.929700,-122.552203,17.3,18.774,33.141,44.457,1062.97,0.0,0.538,18.446,18.409, NaN,23.658,   NaN,17.04,1015.70,100.00,17.40,63.8,76.6,6.6,3.9,349.4,15.8,6.9,6.3,NaN, NaN,18.2,234.4,231.1,1120954499,1120954499,1,11.0,000898,000899,236.5,31.929701,-122.552138,10.92,NaN,NaN,18.779, NaN,NaN,NaN, NaN, NaN
20050710,001528,964033,31.928778,-122.553630,17.3,18.766,33.145,44.455,1087.73,0.0,0.538,18.446,18.409, NaN,23.663,   NaN,17.01,1015.68,100.00,17.39,63.3,74.3,6.9,4.2,347.5,12.7,7.0,6.4,NaN, NaN,19.7,223.8,229.5,1120954529,1120954529,1,10.8,000928,000929,235.5,31.928771,-122.553555,10.91,NaN,NaN,18.771, NaN,NaN,NaN, NaN, NaN
20050710,001558,964064,31.927831,-122.555028,17.3,18.763,33.144,44.450,1111.62,0.0,0.538,18.446,18.409, NaN,23.663,   NaN,17.04,1015.71,100.00,17.41,68.4,72.6,6.8,3.8,350.8,14.5,7.4,6.1,NaN, NaN,18.6,236.8,234.1,1120954559,1120954559,1,11.1,000958,000959,236.1,31.927821,-122.554958,10.92,NaN,NaN,18.768, NaN,NaN,NaN, NaN, NaN
20050710,001628,964094,31.926881,-122.556413,17.5,18.764,33.143,44.450,1063.11,0.0,0.557,18.443,18.404, NaN,23.662,   NaN,17.03,1015.74,100.00,17.38,67.0,76.4,6.5,3.7,351.5,19.0,7.1,6.3,NaN, NaN,19.3,220.4,223.4,1120954589,1120954589,1,11.5,000988,000989,236.1,31.926875,-122.556340,10.67,NaN,NaN,18.769, NaN,NaN,NaN, NaN, NaN
20050710,001658,964124,31.925951,-122.557820,17.5,18.761,33.146,44.451,891.59,0.0,0.538,18.434,18.396, NaN,23.665,   NaN,17.04,1015.71,100.00,17.36,62.6,81.0,6.8,3.4,347.3,26.1,6.9,6.4,NaN, NaN,18.9,238.2,235.8,1120954619,1120954618,1,11.1,001018,001018,235.8,31.925971,-122.557708,10.70,NaN,NaN,18.766, NaN,NaN,NaN, NaN, NaN
20050710,001728,964154,31.924986,-122.559211,17.3,18.749,33.153,44.448,871.83,0.0,0.538,18.428,18.389, NaN,23.673,   NaN,17.10,1015.74,100.00,17.37,62.6,83.2,6.9,3.5,346.9,25.7,6.9,6.5,NaN, NaN,19.7,222.5,228.9,1120954648,1120954648,1,10.9,001048,001048,235.8,31.925010,-122.559101,10.78,NaN,NaN,18.753, NaN,NaN,NaN, NaN, NaN
20050710,001758,964183,31.924021,-122.560630,17.3,18.743,33.148,44.436,952.05,0.0,0.519,18.424,18.386, NaN,23.671,   NaN,17.05,1015.71,100.00,17.36,62.7,79.7,6.9,3.8,346.5,18.3,7.0,6.6,NaN, NaN,19.6,239.2,227.3,1120954678,1120954678,1,11.6,001078,001078,237.4,31.924051,-122.560508,10.90,NaN,NaN,18.747, NaN,NaN,NaN, NaN, NaN
20050710,001828,964214,31.923083,-122.562036,17.4,18.741,33.146,44.431,1058.77,0.0,0.538,18.422,18.385, NaN,23.669,   NaN,17.06,1015.72,100.00,17.36,65.1,81.3,6.6,3.7,350.2,20.4,7.0,6.7,NaN, NaN,19.7,233.9,232.8,1120954708,1120954708,1,10.8,001108,001108,235.1,31.923111,-122.561916,10.77,NaN,NaN,18.745, NaN,NaN,NaN, NaN, NaN
20050710,001858,964244,31.922123,-122.563438,17.4,18.740,33.143,44.427,1264.79,0.0,0.538,18.421,18.385, NaN,23.668,   NaN,17.16,1015.64,100.00,17.40,67.1,67.9,6.5,2.8,351.7,25.3,7.1,5.8,NaN, NaN,20.5,228.8,233.8,1120954739,1120954738,1,10.8,001138,001138,235.2,31.922155,-122.563325,10.83,NaN,NaN,18.744, NaN,NaN,NaN, NaN, NaN
20050710,001928,964274,31.921160,-122.564836,17.4,18.736,33.147,44.427,1234.84,0.0,0.519,18.428,18.389, NaN,23.671,   NaN,17.19,1015.56,100.00,17.42,64.0,49.0,7.3,3.3,345.4,24.2,7.4,5.1,NaN, NaN,19.9,231.1,231.7,1120954769,1120954769,1,11.2,001168,001169,236.3,31.921150,-122.564768,10.77,NaN,NaN,18.740, NaN,NaN,NaN, NaN, NaN
20050710,001959,964305,31.920188,-122.566235,17.4,18.745,33.138,44.425,903.63,0.0,0.538,18.429,18.389, NaN,23.663,   NaN,17.15,1015.63,100.00,17.42,59.6,66.7,8.0,4.0,338.1,16.1,7.5,5.9,NaN, NaN,20.6,232.4,229.4,1120954799,1120954799,1,11.2,001198,001199,235.1,31.920193,-122.566171,10.81,NaN,NaN,18.749, NaN,NaN,NaN, NaN, NaN
20050710,002028,964333,31.919230,-122.567636,17.4,18.755,33.137,44.434,808.78,0.0,0.519,18.421,18.384, NaN,23.659,   NaN,17.05,1015.66,100.00,17.34,59.4,78.4,7.8,4.4,339.3,10.3,7.4,6.7,NaN, NaN,19.9,237.7,234.2,1120954829,1120954829,1,11.0,001228,001229,234.8,31.919228,-122.567573,10.56,NaN,NaN,18.760, NaN,NaN,NaN, NaN, NaN
20050710,002058,964363,31.918270,-122.569031,17.3,18.742,33.147,44.433,848.42,0.0,0.557,18.414,18.376, NaN,23.670,   NaN,17.07,1015.68,100.00,17.32,60.0,72.7,7.5,4.4,341.3,10.1,7.3,6.4,NaN, NaN,20.2,232.0,230.0,1120954858,1120954858,1,11.3,001258,001258,236.7,31.918290,-122.568923,10.64,NaN,NaN,18.746, NaN,NaN,NaN, NaN, NaN
20050710,002128,964394,31.917320,-122.570451,17.3,18.730,33.151,44.427,887.70,0.0,0.519,18.401,18.361, NaN,23.677,   NaN,17.12,1015.67,100.00,17.34,59.7,68.2,7.4,4.0,341.6,12.5,7.0,5.9,NaN, NaN,18.9,227.2,232.8,1120954888,1120954888,1,11.3,001288,001288,235.5,31.917341,-122.570340,10.81,NaN,NaN,18.734, NaN,NaN,NaN, NaN, NaN
20050710,002158,964424,31.916345,-122.571860,17.4,18.715,33.155,44.418,914.85,0.0,0.519,18.387,18.349, NaN,23.683,   NaN,17.15,1015.63,100.00,17.36,63.1,86.1,7.0,3.8,346.4,20.4,7.1,6.7,NaN, NaN,20.1,233.6,234.1,1120954919,1120954919,1,10.7,001318,001319,234.8,31.916333,-122.571795,11.14,NaN,NaN,18.719, NaN,NaN,NaN, NaN, NaN
20050710,002228,964454,31.915376,-122.573283,17.5,18.692,33.155,44.395,938.17,0.0,0.538,18.382,18.345, NaN,23.688,   NaN,17.18,1015.68,100.00,17.39,67.8,84.6,7.2,3.5,349.1,26.6,7.7,6.5,NaN, NaN,20.6,234.6,229.5,1120954949,1120954949,1,11.1,001348,001349,237.6,31.915351,-122.573220,11.00,NaN,NaN,18.696, NaN,NaN,NaN, NaN, NaN
20050710,002258,964484,31.914465,-122.574741,17.3,18.691,33.144,44.381,1006.14,0.0,0.519,18.382,18.342, NaN,23.681,   NaN,17.25,1015.71,100.00,17.39,66.6,67.0,6.9,3.1,351.7,27.0,7.5,5.8,NaN, NaN,19.8,227.4,230.3,1120954979,1120954978,1,11.4,001378,001378,238.6,31.914470,-122.574631,10.75,NaN,NaN,18.695, NaN,NaN,NaN, NaN, NaN
20050710,002328,964513,31.913545,-122.576183,17.3,18.696,33.140,44.381,1161.43,0.0,0.519,18.380,18.341, NaN,23.676,   NaN,17.37,1015.66,100.00,17.53,59.8,80.6,6.6,3.6,349.2,23.6,6.6,6.5,NaN, NaN,19.3,235.2,232.6,1120955009,1120955009,1,11.4,001408,001409,237.6,31.913526,-122.576121,10.67,NaN,NaN,18.700, NaN,NaN,NaN, NaN, NaN
20050710,002358,964543,31.912615,-122.577598,17.5,18.700,33.137,44.381,1248.38,0.0,0.519,18.381,18.343, NaN,23.673,   NaN,17.41,1015.63,100.00,17.55,61.1,90.1,6.8,3.6,347.9,23.2,6.8,6.9,NaN, NaN,20.2,241.7,236.7,1120955039,1120955038,1,10.8,001438,001438,237.5,31.912638,-122.577495,10.79,NaN,NaN,18.704, NaN,NaN,NaN, NaN, NaN
20050710,002428,964574,31.911695,-122.579021,17.2,18.696,33.141,44.382,1136.80,0.0,0.519,18.382,18.345, NaN,23.677,   NaN,17.46,1015.67,100.00,17.64,58.9,71.1,7.3,4.1,343.2,12.3,7.0,6.0,NaN, NaN,19.4,225.5,227.9,1120955068,1120955068,1,11.0,001468,001468,236.3,31.911711,-122.578915,10.72,NaN,NaN,18.700, NaN,NaN,NaN, NaN, NaN
20050710,002458,964604,31.910785,-122.580455,17.5,18.706,33.133,44.382,980.28,0.0,0.500,18.379,18.341, NaN,23.669,   NaN,17.32,1015.62,99.59,17.55,60.7,79.0,7.7,4.2,342.1,14.9,7.4,6.6,NaN, NaN,19.5,229.0,232.5,1120955099,1120955099,1,10.9,001498,001499,237.3,31.910766,-122.580393,10.90,NaN,NaN,18.710, NaN,NaN,NaN, NaN, NaN
20050710,002528,964634,31.909866,-122.581893,17.2,18.697,33.146,44.389,800.20,0.0,0.500,18.377,18.338, NaN,23.680,   NaN,17.31,1015.58,99.74,17.52,62.3,88.3,7.8,3.7,343.3,21.8,7.6,6.9,NaN, NaN,19.7,230.0,234.8,1120955129,1120955128,1,11.4,001528,001528,238.5,31.909876,-122.581778,10.74,NaN,NaN,18.701, NaN,NaN,NaN, NaN, NaN
20050710,002559,964665,31.908900,-122.583366,17.2,18.688,33.144,44.378,746.42,0.0,0.500,18.373,18.334, NaN,23.681,   NaN,17.22,1015.65,99.47,17.47,61.3,76.7,8.2,4.8,340.3,9.1,7.8,6.7,NaN, NaN,18.9,226.3,226.3,1120955159,1120955159,1,11.5,001559,001559,238.8,31.908915,-122.583255,10.73,NaN,NaN,18.692, NaN,NaN,NaN, NaN, NaN
20050710,002628,964693,31.908023,-122.584758,17.4,18.686,33.140,44.371,753.32,0.0,0.519,18.369,18.327, NaN,23.679,   NaN,17.25,1015.64,99.59,17.48,63.4,71.7,7.9,5.0,343.5,5.3,7.8,6.5,NaN, NaN,20.2,222.6,228.2,1120955189,1120955189,1,11.1,001588,001589,237.8,31.908010,-122.584693,10.81,NaN,NaN,18.690, NaN,NaN,NaN, NaN, NaN
20050710,002659,964725,31.907088,-122.586253,17.3,18.685,33.141,44.371,765.94,0.0,0.481,18.366,18.325, NaN,23.680,   NaN,17.32,1015.61,99.50,17.53,66.1,60.7,7.3,3.5,348.5,21.9,7.6,5.7,NaN, NaN,18.9,236.2,236.7,1120955220,1120955219,1,11.4,001619,001619,237.8,31.907098,-122.586135,10.56,NaN,NaN,18.689, NaN,NaN,NaN, NaN, NaN
20050710,002729,964754,31.906158,-122.587675,17.4,18.683,33.140,44.368,758.25,0.0,0.481,18.364,18.321, NaN,23.679,   NaN,17.28,1015.62,99.30,17.52,64.0,59.5,7.4,3.7,346.4,23.0,7.5,6.0,NaN, NaN,19.4,226.0,230.2,1120955249,1120955249,1,11.1,001649,001649,238.3,31.906170,-122.587565,10.60,NaN,NaN,18.687, NaN,NaN,NaN, NaN, NaN
20050710,002759,964784,31.905243,-122.589133,17.3,18.681,33.138,44.365,748.64,0.0,0.500,18.364,18.324, NaN,23.679,   NaN,17.33,1015.62,99.39,17.54,64.4,85.6,7.1,3.4,349.0,26.0,7.3,6.4,NaN, NaN,19.1,230.6,235.5,1120955279,1120955279,1,11.1,001679,001679,237.1,31.905261,-122.589015,10.74,NaN,NaN,18.685, NaN,NaN,NaN, NaN, NaN
20050710,002829,964815,31.904386,-122.590615,17.4,18.681,33.140,44.366,761.33,0.0,0.519,18.368,18.327, NaN,23.680,   NaN,17.40,1015.62,99.39,17.60,64.1,71.2,6.7,2.8,353.5,31.7,7.0,5.7,NaN, NaN,19.2,231.4,237.0,1120955309,1120955309,1,11.2,001709,001709,244.9,31.904383,-122.590495,10.65,NaN,NaN,18.685, NaN,NaN,NaN, NaN, NaN
20050710,002859,964845,31.903643,-122.592096,17.2,18.689,33.134,44.367,772.80,0.0,0.481,18.373,18.334, NaN,23.674,   NaN,17.39,1015.64,99.17,17.61,57.8,64.3,7.2,4.5,348.8,13.1,6.8,5.9,NaN, NaN,19.8,240.2,238.7,1120955339,1120955339,1,10.9,001738,001739,244.1,31.903618,-122.592031,10.76,NaN,NaN,18.693, NaN,NaN,NaN, NaN, NaN
20050710,002929,964875,31.902836,-122.593703,17.2,18.696,33.132,44.372,809.32,0.0,0.500,18.376,18.339, NaN,23.670,   NaN,17.49,1015.63,99.35,17.68,56.9,69.4,7.2,5.1,349.0,9.3,6.7,6.4,NaN, NaN,18.6,237.3,237.3,1120955370,1120955369,1,11.3,001769,001769,244.0,31.902820,-122.593578,10.95,NaN,NaN,18.700, NaN,NaN,NaN, NaN, NaN
20050710,002959,964905,31.902046,-122.595255,17.4,18.702,33.130,44.374,873.10,0.0,0.500,18.378,18.339, NaN,23.667,   NaN,17.47,1015.63,99.05,17.70,56.3,70.6,7.5,4.9,346.8,12.9,6.8,6.4,NaN, NaN,18.7,231.3,239.6,1120955399,1120955399,1,11.3,001799,001799,243.5,31.902041,-122.595136,10.89,NaN,NaN,18.706, NaN,NaN,NaN, NaN, NaN
20050710,003028,964934,31.901276,-122.596755,17.4,18.705,33.134,44.382,971.08,0.0,0.519,18.375,18.334, NaN,23.669,   NaN,17.50,1015.57,99.11,17.75,54.3,64.0,7.9,5.4,342.8,6.2,6.9,6.3,NaN, NaN,18.9,244.9,239.9,1120955429,1120955429,1,11.1,001828,001829,244.1,31.901245,-122.596688,10.83,NaN,NaN,18.709, NaN,NaN,NaN, NaN, NaN
20050710,003059,964964,31.900471,-122.598355,17.4,18.696,33.142,44.383,1121.86,0.0,0.500,18.371,18.331, NaN,23.678,   NaN,17.42,1015.54,98.73,17.72,53.3,67.9,8.4,6.2,338.8,1.6,7.2,6.9,NaN, NaN,19.9,235.1,243.7,1120955459,1120955459,1,10.9,001859,001859,243.6,31.900468,-122.598233,10.69,NaN,NaN,18.700, NaN,NaN,NaN, NaN, NaN
20050710,003128,964994,31.899715,-122.599853,17.4,18.681,33.145,44.373,1258.25,0.0,0.463,18.369,18.328, NaN,23.684,   NaN,17.37,1015.56,98.71,17.66,54.5,68.5,8.3,6.2,340.8,2.5,7.2,7.1,NaN, NaN,19.1,238.7,239.5,1120955489,1120955489,1,11.1,001888,001889,243.3,31.899678,-122.599778,10.71,NaN,NaN,18.685, NaN,NaN,NaN, NaN, NaN
20050710,003158,965023,31.898921,-122.601390,17.3,18.686,33.137,44.367,1423.85,0.0,0.481,18.359,18.318, NaN,23.676,   NaN,17.50,1015.55,98.78,17.71,59.6,68.7,8.1,5.8,345.6,5.0,7.6,6.8,NaN, NaN,19.1,240.4,240.7,1120955519,1120955519,1,11.0,001918,001919,243.1,31.898891,-122.601323,10.53,NaN,NaN,18.690, NaN,NaN,NaN, NaN, NaN
20050710,003228,965053,31.898121,-122.602946,17.1,18.680,33.140,44.366,1036.77,0.0,0.519,18.349,18.311, NaN,23.681,   NaN,17.44,1015.49,98.37,17.71,60.3,68.6,8.7,5.7,343.5,5.4,8.1,6.8,NaN, NaN,18.5,242.8,240.1,1120955549,1120955549,1,11.4,001948,001949,244.5,31.898093,-122.602871,10.70,NaN,NaN,18.684, NaN,NaN,NaN, NaN, NaN
20050710,003258,965084,31.897326,-122.604483,17.4,18.652,33.158,44.361,859.33,0.0,0.481,18.347,18.310, NaN,23.701,   NaN,17.35,1015.49,98.39,17.64,59.8,63.8,9.0,5.6,341.9,5.1,8.3,6.4,NaN, NaN,19.2,241.1,238.0,1120955579,1120955579,1,11.1,001978,001979,243.5,31.897298,-122.604418,10.60,NaN,NaN,18.656, NaN,NaN,NaN, NaN, NaN
20050710,003329,965114,31.896551,-122.606038,17.4,18.647,33.143,44.337,913.83,0.0,0.500,18.347,18.309, NaN,23.691,   NaN,17.33,1015.56,98.30,17.64,60.7,66.6,8.4,5.3,345.0,8.4,8.0,6.5,NaN, NaN,19.5,240.2,238.8,1120955609,1120955609,1,10.9,002008,002009,243.8,31.896518,-122.605968,10.65,NaN,NaN,18.651, NaN,NaN,NaN, NaN, NaN
20050710,003358,965144,31.895776,-122.607595,17.4,18.660,33.132,44.337,926.75,0.0,0.481,18.338,18.296, NaN,23.679,   NaN,17.30,1015.56,98.25,17.59,59.1,67.3,8.0,5.0,345.7,10.2,7.5,6.3,NaN, NaN,19.1,237.0,240.8,1120955639,1120955639,1,10.7,002038,002039,243.8,31.895736,-122.607526,10.68,NaN,NaN,18.664, NaN,NaN,NaN, NaN, NaN
20050710,003429,965175,31.894980,-122.609188,17.4,18.662,33.136,44.343,887.23,0.0,0.481,18.327,18.288, NaN,23.682,   NaN,17.45,1015.56,98.44,17.66,57.6,66.3,8.3,5.3,342.8,7.3,7.5,6.3,NaN, NaN,20.0,238.3,249.8,1120955669,1120955669,1,10.7,002069,002069,243.3,31.894970,-122.609065,10.79,NaN,NaN,18.666, NaN,NaN,NaN, NaN, NaN
20050710,003458,965203,31.894200,-122.610645,17.2,18.631,33.152,44.333,873.94,0.0,0.463,18.322,18.283, NaN,23.702,   NaN,17.41,1015.57,98.20,17.68,56.1,68.4,8.3,5.3,341.0,8.3,7.5,6.5,NaN, NaN,20.9,235.8,233.4,1120955699,1120955699,1,11.1,002098,002099,243.2,31.894171,-122.610581,10.74,NaN,NaN,18.635, NaN,NaN,NaN, NaN, NaN
20050710,003528,965234,31.893453,-122.612198,17.2,18.626,33.139,44.312,886.65,0.0,0.481,18.321,18.281, NaN,23.693,   NaN,17.42,1015.61,98.15,17.70,56.1,65.4,8.3,6.1,341.5,1.0,7.5,6.8,NaN, NaN,20.1,228.5,236.0,1120955729,1120955729,1,10.9,002128,002129,243.3,31.893416,-122.612125,10.60,NaN,NaN,18.630, NaN,NaN,NaN, NaN, NaN
20050710,003558,965264,31.892683,-122.613736,17.2,18.628,33.138,44.313,813.39,0.0,0.481,18.319,18.279, NaN,23.692,   NaN,17.27,1015.62,97.77,17.61,57.3,64.8,8.7,6.2,340.6,1.1,7.8,6.8,NaN, NaN,20.0,241.5,243.3,1120955759,1120955759,1,10.8,002158,002159,243.4,31.892645,-122.613671,10.58,NaN,NaN,18.632, NaN,NaN,NaN, NaN, NaN
20050710,003628,965294,31.891906,-122.615288,17.4,18.631,33.136,44.313,742.64,0.0,0.463,18.317,18.278, NaN,23.690,   NaN,17.29,1015.66,98.04,17.59,62.7,71.4,7.9,5.1,349.1,15.1,7.7,6.8,NaN, NaN,18.9,251.5,247.8,1120955789,1120955789,1,10.8,002188,002189,243.4,31.891876,-122.615220,10.69,NaN,NaN,18.635, NaN,NaN,NaN, NaN, NaN